Total_Precipitation_Accumulation
1.23 1.28 1.27 1.23 1.21 1.55 1.94 2.10 1.92 2.13 2.20 1.91 1.65 1.51 1.45 1.42 1.51 1.62 1.62 1.85 1.77 1.67 1.75 1.75 1.55 1.34 1.20 1.02 0.86 0.73 0.64 0.64 0.59 0.48 0.39 0.33 0.31 0.31 0.31 0.33 0.32 0.28 0.25
1.77 1.77 1.68 1.58 1.42 1.50 1.80 2.00 2.03 2.23 2.11 2.02 1.51 1.45 1.41 1.47 1.57 1.58 1.53 2.02 2.02 1.77 1.65 1.62 1.59 1.48 1.34 1.25 1.10 0.87 0.70 0.64 0.60 0.49 0.40 0.37 0.33 0.30 0.29 0.33 0.36 0.32 0.23
2.21 2.12 1.90 1.67 1.63 1.71 1.80 1.80 1.82 1.94 1.78 1.69 1.48 1.55 1.53 1.38 1.27 1.28 1.38 1.59 1.63 1.48 1.35 1.30 1.37 1.44 1.53 1.51 1.38 1.27 0.98 0.73 0.59 0.47 0.40 0.34 0.29 0.26 0.27 0.30 0.36 0.36 0.28
2.20 2.14 1.83 1.55 1.66 1.76 1.74 1.70 1.60 1.69 1.65 1.66 1.62 1.55 1.58 1.44 1.16 1.12 1.19 1.19 1.23 1.09 1.15 1.16 1.16 1.24 1.52 1.74 1.73 1.68 1.41 0.99 0.70 0.55 0.45 0.36 0.29 0.24 0.23 0.27 0.33 0.35 0.28
1.99 2.10 1.79 1.64 1.69 1.64 1.53 1.47 1.62 1.79 1.70 1.68 1.66 1.52 1.32 1.14 0.95 0.84 0.83 0.75 0.84 0.92 1.00 1.07 1.06 1.08 1.37 1.77 2.03 2.12 1.91 1.46 1.00 0.71 0.59 0.49 0.39 0.30 0.24 0.24 0.25 0.26 0.25
1.66 1.76 1.56 1.50 1.60 1.56 1.42 1.49 1.64 1.75 1.54 1.60 1.53 1.25 1.11 0.89 0.81 0.69 0.57 0.54 0.53 0.54 0.66 0.91 1.11 0.93 1.11 1.43 1.74 2.00 2.13 1.89 1.44 1.07 0.82 0.66 0.54 0.41 0.27 0.21 0.19 0.20 0.21
1.20 1.36 1.22 1.31 1.38 1.32 1.25 1.27 1.35 1.38 1.21 1.46 1.54 1.08 0.78 0.68 0.61 0.52 0.52 0.51 0.43 0.48 0.60 0.82 0.98 1.01 0.94 0.99 1.21 1.45 1.89 2.08 1.85 1.49 1.17 0.90 0.73 0.58 0.37 0.26 0.21 0.19 0.19
1.07 1.02 1.02 1.04 1.10 1.13 1.03 1.01 1.14 1.11 0.95 1.21 1.31 1.16 0.76 0.57 0.48 0.40 0.44 0.42 0.44 0.55 0.58 0.68 0.88 0.94 0.86 1.02 0.93 0.90 1.28 1.70 1.88 1.78 1.52 1.17 0.93 0.76 0.54 0.41 0.31 0.25 0.21
1.20 1.14 1.04 0.97 0.94 0.97 0.97 0.95 1.03 1.03 0.91 0.96 1.09 1.24 0.96 0.61 0.47 0.35 0.37 0.44 0.55 0.66 0.64 0.70 0.77 0.88 0.86 0.98 1.04 1.04 0.96 1.20 1.60 1.97 1.89 1.52 1.11 0.80 0.61 0.55 0.49 0.36 0.27
1.38 1.25 1.13 0.95 0.82 0.80 0.84 0.78 0.85 0.96 0.97 0.86 0.87 0.95 0.96 0.97 0.88 0.52 0.32 0.36 0.55 0.64 0.65 0.67 0.72 0.84 0.93 1.03 1.15 1.37 1.21 1.08 1.30 1.78 1.99 1.85 1.46 1.07 0.83 0.75 0.84 0.74 0.46
1.11 0.97 0.91 0.84 0.75 0.69 0.68 0.72 0.83 0.92 0.95 0.87 0.86 0.86 0.90 1.04 1.05 0.91 0.57 0.50 0.56 0.54 0.53 0.58 0.68 0.82 0.95 1.14 1.39 1.55 1.69 1.44 1.28 1.35 1.57 1.66 1.63 1.38 1.14 1.12 1.43 1.51 1.16
0.69 0.67 0.66 0.68 0.67 0.66 0.66 0.66 0.72 0.81 0.90 0.95 0.96 1.01 1.05 1.06 1.12 1.20 0.98 0.80 0.74 0.65 0.63 0.71 0.83 1.01 1.13 1.26 1.33 1.48 1.52 1.54 1.48 1.40 1.39 1.41 1.45 1.45 1.40 1.44 1.69 1.90 1.89
0.48 0.52 0.56 0.61 0.61 0.66 0.72 0.78 0.79 0.79 0.87 0.98 1.02 1.10 1.19 1.18 1.24 1.34 1.28 1.08 0.98 0.96 0.97 0.97 0.99 1.15 1.15 1.25 1.38 1.29 1.08 1.15 1.16 1.15 1.15 1.13 1.15 1.25 1.31 1.32 1.50 1.74 1.95
0.47 0.51 0.58 0.64 0.64 0.66 0.67 0.77 0.82 0.88 0.96 0.99 0.99 1.16 1.24 1.19 1.30 1.44 1.47 1.43 1.29 1.29 1.36 1.37 1.16 1.08 1.09 1.17 1.27 1.18 1.09 0.97 0.77 0.68 0.67 0.72 0.78 0.87 0.97 1.09 1.22 1.31 1.45
0.50 0.55 0.63 0.72 0.75 0.76 0.79 0.83 0.84 0.94 1.12 1.19 1.18 1.22 1.28 1.26 1.31 1.43 1.55 1.59 1.57 1.51 1.51 1.50 1.26 1.10 1.01 1.02 1.11 1.16 1.27 1.06 0.71 0.55 0.48 0.48 0.52 0.59 0.64 0.74 0.85 0.97 1.09
0.56 0.60 0.65 0.68 0.73 0.75 0.79 0.84 0.89 1.00 1.16 1.22 1.31 1.40 1.39 1.33 1.38 1.45 1.50 1.62 1.72 1.73 1.62 1.48 1.31 1.19 1.11 0.96 0.98 0.96 1.02 0.89 0.65 0.55 0.48 0.45 0.43 0.44 0.50 0.56 0.62 0.71 0.80
0.56 0.63 0.60 0.54 0.51 0.57 0.70 0.85 0.92 1.00 1.09 1.13 1.20 1.22 1.22 1.25 1.30 1.25 1.34 1.46 1.63 1.76 1.63 1.53 1.45 1.41 1.33 1.24 1.10 0.90 0.79 0.69 0.62 0.58 0.50 0.45 0.44 0.44 0.43 0.45 0.49 0.55 0.63
0.53 0.59 0.56 0.51 0.49 0.56 0.69 0.84 0.99 1.20 1.33 1.29 1.22 1.14 1.06 1.12 1.21 1.23 1.32 1.35 1.41 1.62 1.62 1.60 1.59 1.61 1.51 1.33 1.23 1.10 0.91 0.78 0.74 0.68 0.57 0.49 0.43 0.43 0.41 0.41 0.46 0.51 0.57
0.53 0.54 0.55 0.61 0.71 0.80 0.91 1.04 1.10 1.24 1.29 1.20 1.16 1.09 1.01 1.01 1.05 1.14 1.26 1.31 1.30 1.37 1.51 1.55 1.59 1.66 1.63 1.44 1.25 1.14 1.05 1.06 0.97 0.80 0.62 0.52 0.46 0.43 0.42 0.40 0.46 0.54 0.67
0.39 0.49 0.62 0.80 0.91 0.98 1.01 1.07 1.07 1.05 1.05 0.96 0.90 0.85 0.89 1.00 1.05 1.04 1.03 1.07 1.13 1.22 1.32 1.39 1.48 1.61 1.65 1.59 1.36 1.24 1.23 1.18 1.11 0.86 0.72 0.59 0.50 0.43 0.39 0.35 0.37 0.49 0.63
0.33 0.47 0.63 0.74 0.73 0.76 0.83 0.90 0.92 0.89 0.85 0.79 0.71 0.58 0.58 0.75 0.89 0.92 0.86 0.90 0.94 1.02 1.08 1.17 1.29 1.44 1.55 1.62 1.44 1.26 1.22 1.29 1.26 1.13 0.97 0.79 0.64 0.55 0.53 0.49 0.43 0.42 0.45
0.34 0.42 0.51 0.52 0.49 0.38 0.36 0.40 0.48 0.56 0.62 0.63 0.56 0.51 0.50 0.52 0.55 0.57 0.62 0.66 0.73 0.81 0.93 1.08 1.21 1.30 1.33 1.42 1.50 1.48 1.43 1.38 1.39 1.37 1.36 1.29 1.01 0.91 0.87 0.82 0.65 0.44 0.35
0.35 0.41 0.41 0.43 0.45 0.45 0.29 0.20 0.21 0.33 0.41 0.45 0.45 0.49 0.40 0.36 0.40 0.40 0.40 0.39 0.42 0.48 0.60 0.82 1.03 1.13 1.25 1.26 1.46 1.53 1.54 1.64 1.67 1.68 1.62 1.71 1.43 1.16 1.00 0.92 0.81 0.57 0.42
0.43 0.47 0.44 0.45 0.50 0.47 0.31 0.21 0.18 0.20 0.31 0.37 0.41 0.43 0.44 0.45 0.46 0.46 0.44 0.43 0.38 0.36 0.38 0.46 0.67 0.92 1.12 1.33 1.39 1.48 1.56 1.64 1.68 1.59 1.52 1.64 1.58 1.44 1.22 0.92 0.80 0.70 0.57
0.52 0.50 0.50 0.52 0.56 0.57 0.39 0.23 0.18 0.26 0.39 0.42 0.45 0.45 0.45 0.47 0.45 0.35 0.38 0.41 0.42 0.44 0.36 0.36 0.46 0.68 0.88 0.99 1.20 1.39 1.52 1.45 1.40 1.24 1.08 1.18 1.32 1.36 1.41 1.24 0.93 0.83 0.70
0.66 0.60 0.56 0.59 0.65 0.72 0.59 0.32 0.23 0.35 0.53 0.58 0.62 0.59 0.48 0.41 0.36 0.26 0.32 0.43 0.42 0.43 0.46 0.42 0.37 0.45 0.60 0.74 0.81 0.93 1.13 1.22 1.13 1.10 0.93 0.82 0.85 0.95 1.08 1.06 0.91 0.85 0.85